STARLINK-34515, 64712

Orbit data source: Space-Track

STARLINK-34515, 64712 is a payload satellite owned by SpaceX/Seattle (US) in LEO that was launched on Sat, 28 Jun 2025 UTC via an FALCON 9 launch vehicle from the Air Force Western Test Range (AFWTR). Payload-class satellites include a variety of spacecraft equipped with specific instruments for various scientific and technological missions. These include communications satellites like Starlink; space stations such as the ISS; scientific satellites like the Hubble; Earth observation satellites from companies like Planet Labs, Umbra, and HawkEye 360; GPS; miniature CubeSats for education and research; and military/defense satellites.

Loading next visibility...
Identifier
64712, 2025-142S
Orbit
LEO
Last TLE update
11 hours ago
Origin
Manufacturer
SpaceX/Seattle
Mission
Operational spacecraft
Bus & Motor
STARLINK V2MO, Unknown motor
Mass
575 kg wet, ~530 kg dry
Launch date (UTC)
2025-06-28 (3 weeks ago)
Launch vehicle
FALCON 9
Launch site
Air Force Western Test Range (AFWTR)
Object type
Payload
Rocket body
Debris
Shape & HBR
Unknown
Radar Cross Section
Large (>1 m²)

Expand to show TLE details & history

TLE from 11 hours ago
0 STARLINK-34515
1 64712U 25142S   25199.25002315 -.01843883  00000-0 -30964-1 0  9998
2 64712  70.0001 195.5480 0003834 283.1237 114.1558 15.54927922  3954
Epoch: 2025-07-18T06:00Z
TLE epoch observation values (Epoch: 2025-07-18T06:00:02Z)
Latitude
34.81455°
Longitude
-176.18699°
Altitude
407.544 km
Speed
7.669 km/s
True Right ascension
14h 00m 30s
True Declination
34° 38' 43"
Sunlit
Object was in daylight at epoch
Visualization orbit readout
Latitude
3.17305°
Longitude
169.16544°
Altitude
409.319 km
Speed
7.666 km/s
Apparent Right ascension
14h 50m 20s
Apparent Declination
-20° 36' 10"
Sunlit
Object is in daylight
Visualization observer readout
Local Sidereal Time
05:26:38
Azimuth
71.593° E
Elevation
-51.547°
Doppler factor
1
Orbital elements
Apogee altitude
402.858 km
Perigee altitude
397.66 km
Semi-major axis
6,778.396 km
Eccentricity
0.00038
Inclination
70.0001°
RAAN
195.548°
Arg. of periapsis
283.1237°
True anomaly
114.19588°
Mean anomaly
114.1558°
Eccentric anomaly
114.17584°
Mean motion
3.88913 °/min
Orbital period
92.57 mins
BSTAR
-0.030964
Loading maneuver chart data...
Loading SW <> Apogee altitude chart data...
Loading historical data...
Loading historical data...
Loading historical data...
Loading historical data...
Loading historical data...
Loading historical data...
Loading historical data...
|